| time (UTC) | temp F | wind direction | speed MPH | gust MPH | rain 1hr in | rain 24hr in | rain mn in | humidity % | barometer mb |
| 20260505021545 | 0 | 206 | 3.0 | 8.0 | 0.00 | 0.00 | 0.00 | 1008.8 | |
| 20260505020040 | 0 | 218 | 4.0 | 9.0 | 0.00 | 0.00 | 0.00 | 1008.8 | |
| 20260505014537 | 0 | 202 | 5.0 | 9.0 | 0.00 | 0.00 | 0.00 | 1009.0 | |
| 20260505013031 | 0 | 184 | 7.0 | 10.0 | 0.00 | 0.00 | 0.00 | 1009.0 | |
| 20260505011546 | 0 | 182 | 7.0 | 10.0 | 0.00 | 0.00 | 0.00 | 1009.1 | |
| 20260505010023 | 0 | 209 | 5.0 | 13.0 | 0.00 | 0.00 | 0.00 | 1009.2 | |
| 20260505004519 | 0 | 189 | 8.0 | 11.0 | 0.00 | 0.00 | 0.00 | 1009.2 | |
| 20260505003014 | 0 | 191 | 8.0 | 11.0 | 0.00 | 0.00 | 0.00 | 1009.1 | |
| 20260505001510 | 0 | 198 | 5.0 | 7.0 | 0.00 | 0.00 | 0.00 | 1009.3 | |
| 20260505000005 | 0 | 243 | 2.0 | 6.0 | 0.00 | 0.00 | 0.00 | 1009.5 | |
| 20260504234502 | 0 | 183 | 5.0 | 9.0 | 0.00 | 0.00 | 0.00 | 1009.6 | |
| 20260504233110 | 0 | 173 | 2.0 | 5.0 | 0.00 | 0.00 | 0.00 | 1009.6 | |
| 20260504231553 | 0 | 167 | 2.0 | 5.0 | 0.00 | 0.00 | 0.00 | 1009.7 | |
| 20260504230048 | 0 | 180 | 3.0 | 5.0 | 0.00 | 0.00 | 0.00 | 1009.8 | |
| 20260504224545 | 0 | 187 | 3.0 | 5.0 | 0.00 | 0.00 | 0.00 | 1009.9 | |
| 20260504223039 | 0 | 193 | 7.0 | 9.0 | 0.00 | 0.00 | 0.00 | 1010.0 | |
| 20260504221534 | 0 | 195 | 4.0 | 6.0 | 0.00 | 0.00 | 0.00 | 1010.0 | |
| 20260504220030 | 0 | 211 | 3.0 | 7.0 | 0.00 | 0.00 | 0.00 | 1010.2 | |
| 20260504214528 | 0 | 218 | 3.0 | 5.0 | 0.00 | 0.00 | 0.00 | 1010.2 | |
| 20260504213021 | 0 | 190 | 4.0 | 6.0 | 0.00 | 0.00 | 0.00 | 1010.2 | |
| 20260504211516 | 0 | 207 | 4.0 | 6.0 | 0.00 | 0.00 | 0.00 | 1010.2 | |
| 20260504210018 | 0 | 220 | 3.0 | 4.0 | 0.00 | 0.00 | 0.00 | 1010.3 | |
| 20260504204509 | 0 | 217 | 3.0 | 5.0 | 0.00 | 0.00 | 0.00 | 1010.5 | |
| 20260504203004 | 0 | 213 | 2.0 | 4.0 | 0.00 | 0.00 | 0.00 | 1010.5 | |
| 20260504201559 | 0 | 195 | 1.0 | 3.0 | 0.00 | 0.00 | 0.00 | 1010.6 | |
| 20260504194600 | 0 | 227 | 4.0 | 6.0 | 0.00 | 0.00 | 0.00 | 1010.6 | |
| 20260504193046 | 0 | 235 | 2.0 | 4.0 | 0.00 | 0.00 | 0.00 | 1010.6 | |
| 20260504191549 | 0 | 214 | 2.0 | 5.0 | 0.00 | 0.00 | 0.00 | 1010.7 | |
| 20260504190038 | 0 | 186 | 2.0 | 3.0 | 0.00 | 0.00 | 0.00 | 1010.8 | |
| 20260504184533 | 0 | 225 | 2.0 | 4.0 | 0.00 | 0.00 | 0.00 | 1010.8 | |
| 20260504183028 | 0 | 221 | 2.0 | 5.0 | 0.00 | 0.00 | 0.00 | 1010.7 | |
| 20260504181524 | 0 | 182 | 2.0 | 5.0 | 0.00 | 0.00 | 0.00 | 1010.8 | |
| 20260504180020 | 0 | 221 | 2.0 | 4.0 | 0.00 | 0.00 | 0.00 | 1010.9 | |
| 20260504174515 | 0 | 232 | 2.0 | 3.0 | 0.00 | 0.00 | 0.00 | 1010.9 | |
| 20260504173012 | 0 | 185 | 2.0 | 3.0 | 0.00 | 0.00 | 0.00 | 1010.9 | |
| 20260504171506 | 0 | 183 | 1.0 | 3.0 | 0.00 | 0.00 | 0.00 | 1011.0 | |
| 20260504100104 | 0 | 0.0 | 0.0 | 0.00 | 0.00 | 0.00 | 1009.4 | ||
| 20260504081528 | 0 | 222 | 0.0 | 2.0 | 0.00 | 0.00 | 0.00 | 1009.4 | |
| 20260504044527 | 0 | 222 | 0.0 | 0.0 | 0.00 | 0.00 | 0.00 | 1009.7 | |
| 20260504043032 | 0 | 222 | 0.0 | 0.0 | 0.00 | 0.00 | 0.00 | 1009.6 | |
| 20260504041521 | 0 | 222 | 0.0 | 0.0 | 0.00 | 0.00 | 0.00 | 1009.5 | |
| 20260504040014 | 0 | 222 | 0.0 | 2.0 | 0.00 | 0.00 | 0.00 | 1009.5 | |
| 20260504034509 | 0 | 222 | 0.0 | 2.0 | 0.00 | 0.00 | 0.00 | 1009.4 | |
| 20260504033010 | 0 | 222 | 0.0 | 2.0 | 0.00 | 0.00 | 0.00 | 1009.4 | |
| 20260504031559 | 0 | 222 | 0.0 | 1.0 | 0.00 | 0.00 | 0.00 | 1009.4 | |
| 20260504030055 | 0 | 222 | 0.0 | 0.0 | 0.00 | 0.00 | 0.00 | 1009.4 | |
| 20260504024551 | 0 | 222 | 0.0 | 1.0 | 0.00 | 0.00 | 0.00 | 1009.5 | |
| 20260504023047 | 0 | 222 | 0.0 | 1.0 | 0.00 | 0.00 | 0.00 | 1009.6 |